Location: Unspecified
(41.5000°N, 0.0000°E)
Time: 08:42:46
(UTC+00:00)

Vanguard 2 - Pass Details

Date: 22 June 2019
Orbit: 553 x 2938 km, 32.9° (Epoch: 18 July)

Event Time Altitude Azimuth Distance (km) Brightness Sun altitude
Rises 12:05:25 0° 267° (W) 4,052 11.3 71.9°
Reaches altitude 10° 12:07:56 10° 260° (W) 3,352 11.0 71.9°
Maximum altitude 12:16:08 42° 193° (SSW) 2,426 11.3 71.7°
Drops below altitude 10° 12:28:59 10° 129° (SE) 5,184 12.0 71.1°
Sets 12:33:59 0° 124° (SE) 6,465 12.3 70.7°
